Regional Weather Roundup
Issued by NWS

Home | Current Version | Previous Version | Text Only | Print | Product List | Glossary Off
Versions: 1 2 3 4 5 6 7 8 9 10 11 12 13 14 15 16 17 18 19 20 21 22 23 24 25 26 27 28 29 30 31 32 33 34 35 36 37 38 39 40 41 42 43 44 45 46 47 48 49 50

000
ASUS43 KOAX 081910
RWRNE

WEATHER ROUNDUP FOR NEBRASKA
NATIONAL WEATHER SERVICE OMAHA NE
100 PM CST THU DEC 08 2016

NOTES: SATELLITE DATA IS BEING USED TO AUGMENT CLOUD COVER ABOVE
       12000 FEET.
       "FAIR" INDICATES FEW OR NO CLOUDS BELOW 12,000 FEET WITH NO
       SIGNIFICANT WEATHER AND/OR OBSTRUCTIONS TO VISIBILITY.

  * THESE STATIONS DO NOT REPORT WEATHER SUCH AS RAIN...SNOW OR FOG.

NEZ001>004-019>022-054>056-082000-
NEBRASKA PANHANDLE

CITY           SKY/WX    TMP DP  RH WIND       PRES   REMARKS
SCOTTSBLUFF    SUNNY     13  -3  49 CALM      30.48F
ALLIANCE       SUNNY     13   0  56 W6        30.47F WCI   4
CHADRON        SUNNY     13  -4  46 CALM      30.53F
KIMBALL        SUNNY     12   4  70 CALM      30.40F
SIDNEY         SUNNY     13   0  56 CALM      30.46F
$$

NEZ057>060-069>072-079>082-082000-
SOUTHWEST NEBRASKA

CITY           SKY/WX    TMP DP  RH WIND       PRES   REMARKS
NORTH PLATTE   SUNNY     19  -1  41 N6        30.59F WCI  11
IMPERIAL       SUNNY     13   0  56 N6        30.56F WCI   4
LEXINGTON      SUNNY     21   2  43 N7        30.61S WCI  13
MCCOOK         SUNNY     13   2  61 W9        30.63F WCI   1
OGALLALA       SUNNY     15   3  59 CALM      30.56F
$$

NEZ005>010-023>029-035>040-094-082000-
NORTH CENTRAL NEBRASKA

CITY           SKY/WX    TMP DP  RH WIND       PRES   REMARKS
VALENTINE      SUNNY     13  -4  46 N14       30.59F WCI  -2
AINSWORTH      SUNNY     15   0  51 NW16      30.57F WCI  -1
BROKEN BOW     SUNNY     20   1  43 NW13      30.57F WCI   7
O`NEILL        SUNNY     18   3  51 W15G21    30.59F WCI   4
ORD            SUNNY     20   1  43 NW16      30.59F WCI   6
THEDFORD       SUNNY     17  -1  44 NW12      30.57F WCI   4
$$

NEZ041-046>049-061>064-073>077-083>087-082000-
SOUTH CENTRAL NEBRASKA

CITY           SKY/WX    TMP DP  RH WIND       PRES   REMARKS
GRAND ISLAND   SUNNY     21   5  50 N17       30.61F WCI   7
AURORA         SUNNY     22   6  49 N16G23    30.60F WCI   8
HASTINGS       SUNNY     22   5  48 N17G24    30.61F WCI   8
HEBRON         SUNNY     23   8  52 N13       30.63F WCI  11
HOLDREGE       SUNNY     22   4  47 NW12      30.60F WCI  10
KEARNEY *      SUNNY     21   1  42 N15G22    30.61S WCI   8
YORK           SUNNY     23   7  50 NW16G23   30.60F WCI  10
$$

NEZ011>018-030>034-042>045-082000-
NORTHEAST NEBRASKA

CITY           SKY/WX    TMP DP  RH WIND       PRES   REMARKS
NORFOLK        SUNNY     20   5  52 NW18      30.59F WCI   5
ALBION         SUNNY     20   4  49 NW12      30.60F WCI   9
BLAIR          MOSUNNY   22   9  58 NW17      30.57F WCI   7
FREMONT        SUNNY     22   9  56 NW20G26   30.61F WCI   7
TEKAMAH        SUNNY     23   9  55 NW17      30.60F WCI   9
WAYNE          SUNNY     20   7  56 NW17G24   30.59S WCI   6
$$

NEZ050>053-065>068-078-088>093-082000-
SOUTHEAST NEBRASKA

CITY           SKY/WX    TMP DP  RH WIND       PRES   REMARKS
LINCOLN        SUNNY     23   7  50 NW15      30.63F WCI  10
OMAHA EPPLEY   MOSUNNY   23   8  52 NW21      30.60F WCI   8
BEATRICE       SUNNY     24   8  51 NW17      30.62F WCI  10
FALLS CITY     SUNNY     24   9  52 NW17G24   30.61F WCI  11
NEBRASKA CITY  MOSUNNY   22   4  47 NW14G23   30.60F WCI   9
PLATTSMOUTH    MOSUNNY   22   5  49 NW14G23   30.60S WCI   9
$$

NEZ044-045-051>053-067-082000-
OMAHA AREA

CITY           SKY/WX    TMP DP  RH WIND       PRES   REMARKS
OMAHA EPPLEY   MOSUNNY   23   8  52 NW21      30.60F WCI   8
BLAIR          MOSUNNY   22   9  58 NW17      30.57F WCI   7
FREMONT        SUNNY     22   9  56 NW20G26   30.61F WCI   7
MILLARD        MOSUNNY   24  10  54 NW12G20   30.61F WCI  13
OFFUTT AFB     MOSUNNY   23   8  52 NW18      30.60F WCI   8
PLATTSMOUTH    MOSUNNY   22   5  49 NW14G23   30.60S WCI   9
WAHOO          FAIR      23   8  51 NW17      30.61F WCI  10
$$




USA.gov is the U.S. government's official web portal to all federal, state and local government web resources and services.